Change the Weather History Date:

Saturday, March 15, 2014

  Actual Average Record
Temperature  
Mean Temperature 22 °F -  
Max Temperature 28 °F 38 °F 62 °F (2012)
Min Temperature 15 °F 18 °F -13 °F (1997)
Degree Days  
Heating Degree Days 44    
Moisture  
Dew Point 12 °F    
Average Humidity 68    
Maximum Humidity 86    
Minimum Humidity 47    
Precipitation  
Precipitation 0.00 in - - ()
Sea Level Pressure  
Sea Level Pressure 30.17 in    
Wind  
Wind Speed 9 mph (NNE)    
Max Wind Speed 13 mph    
Max Gust Speed 18 mph    
Visibility 10 miles    
Events      
Averages and records for this station are not official NWS values.
T = Trace of Precipitation, MM = Missing Value Source: NWS Daily Summary

Daily Weather History Graph

Daily Weather History Graph

Search for Another Location

Airport or City:

Trip Planner

Search our weather history database for the weather conditions in past years. The results will help you decide how hot, cold, wet, or windy it might be!

Date:

Astronomy

Mar. 15, 2014 Rise Set
Actual Time 7:33 AM CDT 7:27 PM CDT
Civil Twilight 7:04 AM CDT 7:56 PM CDT
Nautical Twilight 6:29 AM CDT 8:31 PM CDT
Astronomical Twilight 5:54 AM CDT 9:06 PM CDT
Moon 6:47 PM CDT (3/15) 6:48 AM CDT (3/15)
Length of Visible Light 12h 52m
Length of Day
11h 53m
Waxing Gibbous, 99% of the Moon is Illuminated
Mar 15
Waxing Gibbous
Mar 16
Full
Mar 23
Last Quarter
Mar 30
New
Apr 7
First Quarter

Hourly Weather History & Observations

Time (CDT) Temp. Windchill Dew Point Humidity Pressure Visibility Wind Dir Wind Speed Gust Speed Precip Events Conditions
12:14 AM 19.4 °F 10.4 °F 14.0 °F 80% 29.97 in 10.0 mi North 6.9 mph - N/A   Clear
12:33 AM 19.4 °F 11.5 °F 12.2 °F 74% 29.98 in 10.0 mi North 5.8 mph - N/A   Clear
12:53 AM 19.4 °F 10.4 °F 12.2 °F 74% 29.97 in 10.0 mi North 6.9 mph - N/A   Clear
1:14 AM 19.4 °F 10.4 °F 12.2 °F 74% 29.97 in 10.0 mi North 6.9 mph - N/A   Clear
1:33 AM 19.4 °F 10.4 °F 12.2 °F 74% 29.97 in 10.0 mi North 6.9 mph - N/A   Clear
1:53 AM 19.4 °F 12.8 °F 12.2 °F 74% 29.98 in 10.0 mi North 4.6 mph - N/A   Clear
2:13 AM 19.4 °F 8.6 °F 12.2 °F 74% 29.98 in 10.0 mi NNE 9.2 mph - N/A   Clear
2:33 AM 19.4 °F 9.5 °F 12.2 °F 74% 29.98 in 10.0 mi NNE 8.1 mph - N/A   Clear
2:54 AM 17.6 °F 6.4 °F 12.2 °F 79% 29.99 in 10.0 mi NNE 9.2 mph - N/A   Clear
3:13 AM 17.6 °F 8.2 °F 14.0 °F 86% 30.00 in 10.0 mi NNE 6.9 mph - N/A   Clear
3:33 AM 17.6 °F 7.3 °F 14.0 °F 86% 29.99 in 10.0 mi NNE 8.1 mph - N/A   Clear
3:53 AM 17.6 °F 8.2 °F 14.0 °F 86% 30.00 in 10.0 mi NE 6.9 mph - N/A   Clear
4:13 AM 17.6 °F 8.2 °F 14.0 °F 86% 30.01 in 10.0 mi NNE 6.9 mph - N/A   Clear
4:33 AM 17.6 °F 9.3 °F 14.0 °F 86% 30.01 in 10.0 mi NNE 5.8 mph - N/A   Clear
4:53 AM 17.6 °F 8.2 °F 14.0 °F 86% 30.01 in 10.0 mi NNE 6.9 mph - N/A   Clear
5:13 AM 17.6 °F 8.2 °F 14.0 °F 86% 30.02 in 10.0 mi NNE 6.9 mph - N/A   Clear
5:34 AM 17.6 °F 10.7 °F 12.2 °F 79% 30.03 in 10.0 mi NNE 4.6 mph - N/A   Scattered Clouds
5:53 AM 17.6 °F 8.2 °F 14.0 °F 86% 30.03 in 10.0 mi NNE 6.9 mph - N/A   Mostly Cloudy
6:13 AM 17.6 °F 8.2 °F 12.2 °F 79% 30.04 in 10.0 mi NNE 6.9 mph - N/A   Overcast
6:33 AM 17.6 °F 10.7 °F 12.2 °F 79% 30.04 in 10.0 mi NNE 4.6 mph - N/A   Scattered Clouds
6:53 AM 17.6 °F 8.2 °F 12.2 °F 79% 30.04 in 10.0 mi NNE 6.9 mph - N/A   Clear
7:13 AM 15.8 °F 5.1 °F 12.2 °F 86% 30.05 in 10.0 mi NE 8.1 mph - N/A   Clear
7:33 AM 15.8 °F 4.2 °F 12.2 °F 86% 30.05 in 10.0 mi NNE 9.2 mph - N/A   Clear
7:53 AM 15.8 °F 4.2 °F 12.2 °F 86% 30.06 in 10.0 mi NNE 9.2 mph - N/A   Clear
8:14 AM 15.8 °F 2.7 °F 12.2 °F 86% 30.07 in 10.0 mi NNE 11.5 mph - N/A   Clear
8:33 AM 17.6 °F 5.0 °F 12.2 °F 79% 30.08 in 10.0 mi NNE 11.5 mph - N/A   Clear
8:53 AM 17.6 °F 5.7 °F 12.2 °F 79% 30.10 in 10.0 mi NNE 10.4 mph - N/A   Clear
9:13 AM 17.6 °F 5.0 °F 12.2 °F 79% 30.10 in 10.0 mi NE 11.5 mph - N/A   Clear
9:33 AM 17.6 °F 6.4 °F 12.2 °F 79% 30.11 in 10.0 mi NNE 9.2 mph - N/A   Clear
9:53 AM 19.4 °F 7.9 °F 12.2 °F 74% 30.12 in 10.0 mi NNE 10.4 mph - N/A   Clear
10:13 AM 19.4 °F 7.2 °F 14.0 °F 80% 30.13 in 10.0 mi NNE 11.5 mph - N/A   Clear
10:33 AM 21.2 °F 8.9 °F 14.0 °F 74% 30.14 in 10.0 mi NNE 12.7 mph - N/A   Mostly Cloudy
10:54 AM 21.2 °F 9.5 °F 15.8 °F 80% 30.15 in 10.0 mi NE 11.5 mph - N/A   Scattered Clouds
11:13 AM 23.0 °F 11.7 °F 15.8 °F 74% 30.16 in 10.0 mi NNE 11.5 mph - N/A   Clear
11:33 AM 24.8 °F 14.6 °F 15.8 °F 69% 30.17 in 10.0 mi NNE 10.4 mph - N/A   Clear
11:53 AM 24.8 °F 13.4 °F 15.8 °F 69% 30.17 in 10.0 mi NNE 12.7 mph - N/A   Clear
12:13 PM 24.8 °F 13.4 °F 15.8 °F 69% 30.19 in 10.0 mi NNE 12.7 mph 16.1 mph N/A   Clear
12:33 PM 24.8 °F 13.4 °F 15.8 °F 69% 30.20 in 10.0 mi NNE 12.7 mph 16.1 mph N/A   Clear
12:53 PM 24.8 °F 14.6 °F 14.0 °F 64% 30.20 in 10.0 mi NNE 10.4 mph 18.4 mph N/A   Clear
1:14 PM 26.6 °F 15.7 °F 14.0 °F 59% 30.21 in 10.0 mi NNE 12.7 mph - N/A   Clear
1:33 PM 26.6 °F 16.8 °F 14.0 °F 59% 30.21 in 10.0 mi NNE 10.4 mph 16.1 mph N/A   Clear
1:53 PM 26.6 °F 17.5 °F 15.8 °F 64% 30.21 in 10.0 mi NE 9.2 mph - N/A   Clear
2:14 PM 26.6 °F 16.2 °F 15.8 °F 64% 30.22 in 10.0 mi NNE 11.5 mph - N/A   Scattered Clouds
2:33 PM 26.6 °F 15.7 °F 14.0 °F 59% 30.22 in 10.0 mi NNE 12.7 mph - N/A   Clear
2:53 PM 26.6 °F 17.5 °F 14.0 °F 59% 30.23 in 10.0 mi NE 9.2 mph - N/A   Clear
3:13 PM 26.6 °F 16.2 °F 12.2 °F 55% 30.23 in 10.0 mi NNE 11.5 mph 16.1 mph N/A   Clear
3:33 PM 28.4 °F 18.5 °F 12.2 °F 51% 30.24 in 10.0 mi NNE 11.5 mph - N/A   Clear
3:54 PM 28.4 °F 18.5 °F 10.4 °F 47% 30.24 in 10.0 mi NNE 11.5 mph - N/A   Clear
4:13 PM 28.4 °F 18.5 °F 12.2 °F 51% 30.25 in 10.0 mi NNE 11.5 mph - N/A   Clear
4:33 PM 28.4 °F 18.0 °F 12.2 °F 51% 30.26 in 10.0 mi NNE 12.7 mph - N/A   Clear
4:53 PM 28.4 °F 19.7 °F 12.2 °F 51% 30.26 in 10.0 mi North 9.2 mph - N/A   Clear
5:13 PM 28.4 °F 19.7 °F 12.2 °F 51% 30.27 in 10.0 mi North 9.2 mph - N/A   Clear
5:34 PM 28.4 °F 18.0 °F 12.2 °F 51% 30.28 in 10.0 mi NNE 12.7 mph 17.3 mph N/A   Clear
5:53 PM 28.4 °F 18.5 °F 10.4 °F 47% 30.29 in 10.0 mi North 11.5 mph - N/A   Clear
6:13 PM 26.6 °F 16.2 °F 8.6 °F 47% 30.30 in 10.0 mi North 11.5 mph - N/A   Clear
6:34 PM 26.6 °F 16.2 °F 8.6 °F 47% 30.30 in 10.0 mi NNE 11.5 mph - N/A   Clear
6:53 PM 26.6 °F 15.7 °F 8.6 °F 47% 30.31 in 10.0 mi NNE 12.7 mph - N/A   Clear
7:13 PM 24.8 °F 14.6 °F 8.6 °F 50% 30.33 in 10.0 mi North 10.4 mph - N/A   Clear
7:33 PM 24.8 °F 14.6 °F 8.6 °F 50% 30.33 in 10.0 mi North 10.4 mph - N/A   Clear
7:53 PM 23.0 °F 13.9 °F 10.4 °F 59% 30.34 in 10.0 mi North 8.1 mph - N/A   Clear
8:14 PM 23.0 °F 14.7 °F 8.6 °F 54% 30.36 in 10.0 mi North 6.9 mph - N/A   Clear
8:33 PM 21.2 °F 11.7 °F 10.4 °F 63% 30.36 in 10.0 mi North 8.1 mph - N/A   Clear
8:53 PM 21.2 °F 10.9 °F 10.4 °F 63% 30.36 in 10.0 mi North 9.2 mph - N/A   Clear
9:13 PM 21.2 °F 10.9 °F 8.6 °F 58% 30.37 in 10.0 mi North 9.2 mph - N/A   Clear
9:33 PM 21.2 °F 10.9 °F 8.6 °F 58% 30.38 in 10.0 mi North 9.2 mph - N/A   Clear
9:54 PM 19.4 °F 7.9 °F 8.6 °F 63% 30.39 in 10.0 mi North 10.4 mph - N/A   Clear
10:13 PM 19.4 °F 9.5 °F 8.6 °F 63% 30.39 in 10.0 mi North 8.1 mph - N/A   Clear
10:33 PM 19.4 °F 8.6 °F 8.6 °F 63% 30.40 in 10.0 mi NNE 9.2 mph - N/A   Clear
10:53 PM 19.4 °F 7.9 °F 6.8 °F 58% 30.40 in 10.0 mi NNE 10.4 mph - N/A   Clear
11:13 PM 17.6 °F 6.4 °F 8.6 °F 68% 30.41 in 10.0 mi NNE 9.2 mph - N/A   Clear
11:34 PM 17.6 °F 5.7 °F 6.8 °F 63% 30.41 in 10.0 mi NNE 10.4 mph - N/A   Clear
11:53 PM 17.6 °F 6.4 °F 6.8 °F 63% 30.42 in 10.0 mi NNE 9.2 mph - N/A   Clear